Regional Weather Roundup
Issued by NWS

Home | Current Version | Previous Version | Text Only | Print | Product List | Glossary Off
Versions: 1 2 3 4 5 6 7 8 9 10 11 12 13 14 15 16 17 18 19 20 21 22 23 24 25 26 27 28 29 30 31 32 33 34 35 36 37 38 39 40 41 42 43 44 45 46 47 48 49 50

000
ASUS43 KDTX 231501
RWRMI
MICHIGAN HOURLY REGIONAL WEATHER ROUNDUP
NATIONAL WEATHER SERVICE DETROIT/PONTIAC MI
1100 AM EDT SAT SEP 23 2017

NOTE: "FAIR" INDICATES FEW OR NO CLOUDS BELOW 12,000 FEET WITH NO
SIGNIFICANT WEATHER AND/OR OBSTRUCTION TO VISIBILITY.

MIZ047>049-052>055-059>063-066>070-074>076-081>083-231600-
SOUTHEAST LOWER MICHIGAN

CITY           SKY/WX    TMP DP  RH WIND       PRES   REMARKS
ADRIAN         SUNNY     78  65  63 CALM      30.16S
ALMA           SUNNY     83  65  55 SW3       30.15S
ANN ARBOR      SUNNY     81  67  62 CALM      30.16R
BAD AXE        SUNNY     82  64  52 W3        30.16R
CARO           SUNNY     83  62  48 W5        30.15R
DETROIT CITY   SUNNY     80  66  62 CALM      30.15S
DETROIT        MOSUNNY   79  68  69 CALM      30.16R
FLINT          SUNNY     85  58  39 W5        30.15S
GROSSE ILE     SUNNY     78  69  73 CALM      30.15R
HILLSDALE      PTSUNNY   81  63  54 SE3       30.16S
HOWELL         SUNNY     83  56  38 CALM      30.16S

CITY           SKY/WX    TMP DP  RH WIND       PRES   REMARKS
JACKSON        SUNNY     82  62  50 CALM      30.16R
LAMBERTVILLE   SUNNY     80  67  64 CALM      30.15R
LANSING        SUNNY     84  58  40 SW3       30.16R
LAPEER         FAIR      83  57  40 SW3       30.16S
MASON          SUNNY     85  57  38 CALM      30.16S
MONROE         SUNNY     80  67  66 CALM      30.14S
MT. CLEMENS    MOSUNNY   80  70  72 VRB1      30.14R
PONTIAC        MOSUNNY   81  60  48 CALM      30.15S
PORT HOPE        N/A     82  67  60 SW7       30.12S
PORT HURON     SUNNY     81  63  54 CALM      30.16R
TRI CITIES     SUNNY     82  68  62 W10       30.15R
MIDLAND        FAIR      81  67  62 W3        30.13S
TROY           SUNNY     80  65  60 CALM      30.17S
SAGINAW HB     SUNNY     81  63  54 SW6       30.14R
$$
MIZ043>046-050>051-056>058-064>065-071>073-077>080-231600-
SOUTHWEST LOWER MICHIGAN

CITY           SKY/WX    TMP DP  RH WIND       PRES   REMARKS
BATTLE CREEK   SUNNY     83  61  47 CALM      30.16R
BENTON HARBOR  SUNNY     82  68  62 CALM      30.13R
BIG RAPIDS     SUNNY     83  66  57 CALM      30.14S
COLDWATER      SUNNY     81  64  56 CALM      30.15S
FREMONT        FAIR      84  68  58 SW7       30.13R
HOLLAND        SUNNY     84  67  56 W7        30.14R
GRAND RAPIDS   MOSUNNY   86  67  52 SW3       30.14S
IONIA          FAIR      85  64  49 SW6       30.14S
KALAMAZOO      SUNNY     83  64  52 CALM      30.15R
LUDINGTON      SUNNY     82  67  60 SW8       30.11R
MARSHALL       SUNNY     82  61  49 CALM      30.15S
MUSKEGON       MOSUNNY   85  67  54 S7        30.12F
SOUTH HAVEN    SUNNY     84  66  55 CALM      30.13R
$$
MIZ016>042-231600-
NORTHERN LOWER MICHIGAN

CITY           SKY/WX    TMP DP  RH WIND       PRES   REMARKS
ALPENA         CLOUDY    82  70  66 SW6       30.11R
BEAVER ISLAND  SUNNY     80  65  61 SW13      30.06S
BELLAIRE       SUNNY     81  66  60 S5        30.10R
CADILLAC       SUNNY     82  66  57 SW8       30.14S
CHARLEVOIX     SUNNY     83  65  54 SW12      30.10S
FRANKFORT      SUNNY     83  67  59 S7        30.10R
GAYLORD        SUNNY     80  65  59 SW14      30.13S
GRAYLING       SUNNY     81  66  59 SW6       30.14S
HARBOR SPRINGS SUNNY     80  66  62 SW6       30.08S
HOUGHTON LAKE  SUNNY     79  66  64 SW7       30.15S
MANISTEE       SUNNY     83  69  62 S5        30.10R
OSCODA         SUNNY     81  69  65 SW7       30.12R
PELLSTON       SUNNY     84  66  54 W7        30.08R
ROGERS CITY    CLOUDY    80  68  67 SW9       30.10S
TRAVERSE CITY  MOSUNNY   85  66  53 W7        30.08R
$$
MIZ007>008-015-231600-
EASTERN UPPER MICHIGAN

CITY           SKY/WX    TMP DP  RH WIND       PRES   REMARKS
KINROSS        SUNNY     78  68  71 S8        30.08R
MACKINAC ISLAN SUNNY     78  64  60 W5        30.08R
NEWBERRY       SUNNY     77  72  84 W8        30.06R
S. S. MARIE    SUNNY     76  69  79 S3        30.06S
MUNISING         N/A     80  70  71 S10       30.00F
$$
MIZ004>006-011>014-085-231600-
CENTRAL UPPER MICHIGAN

CITY           SKY/WX    TMP DP  RH WIND       PRES   REMARKS
MANISTIQUE     SUNNY     71  65  81 S8        30.05R
ESCANABA       SUNNY     73  68  84 S7        30.04R
MENOMINEE      CLOUDY    78  67  68 SW7       30.05R
SAWYER-GWINN   SUNNY     75  68  78 SW12      30.03S
$$
MIZ001>003-009>011-084-231600-
WESTERN UPPER MICHIGAN

CITY           SKY/WX    TMP DP  RH WIND       PRES   REMARKS
IRON MOUNTAIN  SUNNY     81  67  62 SW5       30.04R
HOUGHTON       MOSUNNY   75  67  76 S9        29.94S
COPPER HARBOR    N/A     76  68  76 SW8G16    29.91R
IRONWOOD       MOSUNNY   80  70  71 SW15G21   29.97R
$$

ABBREVIATIONS USED IN REMARKS
   TC - TEMPERATURE IN CELSIUS
  WCI - WIND CHILL INDEX
   HX - HEAT INDEX
  VSB - VISIBILITY




USA.gov is the U.S. government's official web portal to all federal, state and local government web resources and services.